Location: Newark
(13.6797°N, 8.5297°E)
Time: 18:40:54
(UTC+00:00)

A-11 Canister half - Pass Details

Date: 26 January 2020
Orbit: 1517 x 1683 km, 47.2° (Epoch: 26 February)

Event Time Altitude Azimuth Distance (km) Brightness Sun altitude
Rises 04:40:25 0° 335° (NNW) 4,654 - -17.8°
Exits shadow 04:41:09 - 337° (NNW) 4,467 11.1 -17.6°
Reaches altitude 10° 04:44:29 10° 350° (N) 3,679 10.7 -16.9°
Maximum altitude 04:51:11 22° 37° (NE) 2,887 10.7 -15.3°
Drops below altitude 10° 04:57:58 10° 84° (E) 3,742 12.2 -13.7°
Sets 05:02:05 0° 99° (E) 4,754 13.5 -12.8°
